| time (UTC) | temp C | wind direction | speed KPH | gust KPH | rain 1hr cm | rain 24hr cm | rain mn cm | humidity % | barometer mb |
| 20260503194102 | 8 | 0.0 | 0.0 | 0.00 | 0.00 | 0.00 | 61 | 1020.3 | |
| 20260503193100 | 9 | 0.0 | 0.0 | 0.00 | 0.00 | 0.00 | 60 | 1020.3 | |
| 20260503192058 | 9 | 0.0 | 0.0 | 0.00 | 0.00 | 0.00 | 57 | 1020.4 | |
| 20260503191056 | 10 | 0.0 | 0.0 | 0.00 | 0.00 | 0.00 | 56 | 1020.3 | |
| 20260503190053 | 10 | 0.0 | 0.0 | 0.00 | 0.00 | 0.00 | 55 | 1020.1 | |
| 20260503185051 | 10 | 0.0 | 0.0 | 0.00 | 0.00 | 0.00 | 53 | 1020.3 | |
| 20260503184049 | 11 | 0.0 | 0.0 | 0.00 | 0.00 | 0.00 | 52 | 1020.2 | |
| 20260503183047 | 11 | 0.0 | 0.0 | 0.00 | 0.00 | 0.00 | 50 | 1020.3 | |
| 20260503182045 | 12 | 0.0 | 0.0 | 0.00 | 0.00 | 0.00 | 50 | 1020.2 | |
| 20260503181043 | 12 | 0.0 | 0.0 | 0.00 | 0.00 | 0.00 | 44 | 1020.0 | |
| 20260503180041 | 13 | 0.0 | 0.0 | 0.00 | 0.00 | 0.00 | 43 | 1020.0 | |
| 20260503175059 | 13 | 0.0 | 0.0 | 0.00 | 0.00 | 0.00 | 42 | 1019.9 | |
| 20260503174037 | 15 | 0.0 | 0.0 | 0.00 | 0.00 | 0.00 | 41 | 1019.8 | |
| 20260503173034 | 15 | 0.0 | 0.0 | 0.00 | 0.00 | 0.00 | 39 | 1019.9 | |
| 20260503172052 | 16 | 0.0 | 0.0 | 0.00 | 0.00 | 0.00 | 35 | 1019.8 | |
| 20260503171030 | 17 | 0.0 | 0.0 | 0.00 | 0.00 | 0.00 | 31 | 1019.8 | |
| 20260503131040 | 23 | 132 | 3.2 | 6.4 | 0.00 | 0.00 | 0.00 | 21 | 1021.7 |
| 20260503110112 | 21 | 72 | 4.8 | 8.0 | 0.00 | 0.00 | 0.00 | 23 | 1023.1 |
| 20260503090127 | 20 | 141 | 3.2 | 6.4 | 0.00 | 0.00 | 0.00 | 30 | 1024.2 |
| 20260503081037 | 18 | 234 | 4.8 | 8.0 | 0.00 | 0.00 | 0.00 | 31 | 1024.3 |
| 20260503072026 | 17 | 195 | 3.2 | 8.0 | 0.00 | 0.00 | 0.00 | 40 | 1024.2 |
| 20260503071024 | 17 | 115 | 3.2 | 9.7 | 0.00 | 0.00 | 0.00 | 42 | 1024.2 |
| 20260503060129 | 12 | 234 | 4.8 | 9.7 | 0.00 | 0.00 | 0.00 | 54 | 1023.8 |
| 20260503055127 | 11 | 207 | 1.6 | 6.4 | 0.00 | 0.00 | 0.00 | 61 | 1023.9 |
| 20260503054105 | 11 | 220 | 4.8 | 9.7 | 0.00 | 0.00 | 0.00 | 61 | 1024.0 |
| 20260503053123 | 10 | 204 | 4.8 | 9.7 | 0.00 | 0.00 | 0.00 | 62 | 1023.7 |
| 20260503052101 | 10 | 214 | 4.8 | 12.9 | 0.00 | 0.00 | 0.00 | 63 | 1023.7 |
| 20260503051058 | 10 | 194 | 6.4 | 17.7 | 0.00 | 0.00 | 0.00 | 64 | 1023.7 |
| 20260503050056 | 9 | 218 | 3.2 | 8.0 | 0.00 | 0.00 | 0.00 | 65 | 1023.7 |
| 20260503045054 | 8 | 221 | 3.2 | 8.0 | 0.00 | 0.00 | 0.00 | 66 | 1023.6 |
| 20260503044052 | 8 | 212 | 3.2 | 6.4 | 0.00 | 0.00 | 0.00 | 68 | 1023.5 |
| 20260503043050 | 7 | 195 | 3.2 | 6.4 | 0.00 | 0.00 | 0.00 | 69 | 1023.5 |
| 20260503042108 | 7 | 221 | 1.6 | 4.8 | 0.00 | 0.00 | 0.00 | 72 | 1023.3 |
| 20260503041046 | 7 | 203 | 1.6 | 3.2 | 0.00 | 0.00 | 0.00 | 74 | 1023.2 |
| 20260503040044 | 6 | 222 | 1.6 | 8.0 | 0.00 | 0.00 | 0.00 | 76 | 1023.2 |
| 20260503035041 | 6 | 219 | 1.6 | 3.2 | 0.00 | 0.00 | 0.00 | 77 | 1023.1 |
| 20260503034039 | 6 | 225 | 0.0 | 4.8 | 0.00 | 0.00 | 0.00 | 77 | 1023.0 |
| 20260503033058 | 6 | 208 | 1.6 | 8.0 | 0.00 | 0.00 | 0.00 | 77 | 1022.8 |
| 20260503032035 | 5 | 238 | 0.0 | 3.2 | 0.00 | 0.00 | 0.00 | 79 | 1022.8 |
| 20260503031033 | 4 | 200 | 1.6 | 6.4 | 0.00 | 0.00 | 0.00 | 79 | 1022.9 |
| 20260503030031 | 4 | 225 | 0.0 | 3.2 | 0.00 | 0.00 | 0.00 | 79 | 1022.7 |
| 20260503025029 | 5 | 0.0 | 3.2 | 0.00 | 0.00 | 0.00 | 80 | 1022.7 | |
| 20260503024027 | 5 | 225 | 0.0 | 3.2 | 0.00 | 0.00 | 0.00 | 80 | 1022.6 |
| 20260503023025 | 4 | 225 | 1.6 | 3.2 | 0.00 | 0.00 | 0.00 | 80 | 1022.5 |
| 20260503022103 | 5 | 214 | 0.0 | 3.2 | 0.00 | 0.00 | 0.00 | 80 | 1022.6 |
| 20260503021020 | 5 | 0.0 | 1.6 | 0.00 | 0.00 | 0.00 | 80 | 1022.5 | |
| 20260503020019 | 5 | 225 | 0.0 | 3.2 | 0.00 | 0.00 | 0.00 | 80 | 1022.4 |
| 20260503015017 | 5 | 180 | 0.0 | 3.2 | 0.00 | 0.00 | 0.00 | 81 | 1022.4 |
| 20260503014114 | 5 | 210 | 1.6 | 3.2 | 0.00 | 0.00 | 0.00 | 81 | 1022.4 |
| 20260503013112 | 5 | 0.0 | 1.6 | 0.00 | 0.00 | 0.00 | 82 | 1022.3 | |
| 20260503012110 | 5 | 0.0 | 1.6 | 0.00 | 0.00 | 0.00 | 83 | 1022.1 | |
| 20260503011108 | 4 | 225 | 0.0 | 3.2 | 0.00 | 0.00 | 0.00 | 83 | 1022.1 |
| 20260503010126 | 3 | 180 | 0.0 | 3.2 | 0.00 | 0.00 | 0.00 | 82 | 1021.9 |
| 20260503005124 | 3 | 0.0 | 0.0 | 0.00 | 0.00 | 0.00 | 82 | 1021.9 | |
| 20260503004102 | 3 | 0.0 | 0.0 | 0.00 | 0.00 | 0.00 | 82 | 1021.9 | |
| 20260503003120 | 4 | 0.0 | 0.0 | 0.00 | 0.00 | 0.00 | 82 | 1021.8 | |
| 20260503002057 | 4 | 0.0 | 0.0 | 0.00 | 0.00 | 0.00 | 82 | 1021.8 | |
| 20260503001056 | 4 | 0.0 | 0.0 | 0.00 | 0.00 | 0.00 | 81 | 1021.8 | |
| 20260503000053 | 4 | 0.0 | 0.0 | 0.00 | 0.00 | 0.00 | 81 | 1021.8 | |
| 20260502235111 | 4 | 0.0 | 0.0 | 0.00 | 0.00 | 0.00 | 81 | 1021.8 | |
| 20260502234049 | 4 | 0.0 | 0.0 | 0.00 | 0.00 | 0.00 | 80 | 1021.9 | |
| 20260502233047 | 5 | 0.0 | 0.0 | 0.00 | 0.00 | 0.00 | 80 | 1021.7 | |
| 20260502232045 | 5 | 0.0 | 0.0 | 0.00 | 0.00 | 0.00 | 80 | 1021.8 | |
| 20260502231043 | 5 | 0.0 | 0.0 | 0.00 | 0.00 | 0.00 | 80 | 1021.8 | |
| 20260502230041 | 5 | 0.0 | 0.0 | 0.00 | 0.00 | 0.00 | 79 | 1021.8 | |
| 20260502225039 | 5 | 0.0 | 0.0 | 0.00 | 0.00 | 0.00 | 78 | 1021.7 | |
| 20260502224057 | 5 | 0.0 | 0.0 | 0.00 | 0.00 | 0.00 | 77 | 1021.7 | |
| 20260502223034 | 5 | 0.0 | 0.0 | 0.00 | 0.00 | 0.00 | 75 | 1021.7 | |
| 20260502222032 | 6 | 0.0 | 0.0 | 0.00 | 0.00 | 0.00 | 74 | 1021.7 | |
| 20260502221030 | 6 | 0.0 | 0.0 | 0.00 | 0.00 | 0.00 | 73 | 1021.6 | |
| 20260502220028 | 6 | 0.0 | 0.0 | 0.00 | 0.00 | 0.00 | 72 | 1021.6 | |
| 20260502215026 | 6 | 0.0 | 0.0 | 0.00 | 0.00 | 0.00 | 72 | 1021.6 | |
| 20260502214024 | 6 | 0.0 | 1.6 | 0.00 | 0.00 | 0.00 | 71 | 1021.6 | |
| 20260502213022 | 6 | 0.0 | 0.0 | 0.00 | 0.00 | 0.00 | 70 | 1021.5 | |
| 20260502212040 | 7 | 0.0 | 0.0 | 0.00 | 0.00 | 0.00 | 69 | 1021.5 | |
| 20260502211017 | 7 | 0.0 | 0.0 | 0.00 | 0.00 | 0.00 | 65 | 1021.5 | |
| 20260502210015 | 7 | 0.0 | 0.0 | 0.00 | 0.00 | 0.00 | 62 | 1021.4 | |
| 20260502205113 | 8 | 0.0 | 0.0 | 0.00 | 0.00 | 0.00 | 62 | 1021.5 | |
| 20260502204111 | 8 | 0.0 | 0.0 | 0.00 | 0.00 | 0.00 | 61 | 1021.5 | |
| 20260502203109 | 8 | 180 | 0.0 | 4.8 | 0.00 | 0.00 | 0.00 | 62 | 1021.5 |
| 20260502202107 | 8 | 0.0 | 1.6 | 0.00 | 0.00 | 0.00 | 63 | 1021.5 | |
| 20260502201125 | 8 | 0.0 | 0.0 | 0.00 | 0.00 | 0.00 | 62 | 1021.4 | |
| 20260502195101 | 8 | 0.0 | 0.0 | 0.00 | 0.00 | 0.00 | 60 | 1021.4 |